Location: Staunton
(38.1490°N, 79.0720°W)
Time: 00:24:44
(UTC-05:00)

ISS - Pass Details

Date: 23 November 2020
Orbit: 418 x 421 km, 51.6° (Epoch: 26 November)

Event Time Altitude Azimuth Distance (km) Brightness Sun altitude
Rises 19:07:09 0° 285° (WNW) 2,358 1.2 -24.9°
Reaches altitude 10° 19:10:19 10° 318° (NW) 1,496 -0.6 -25.5°
Enters shadow 19:10:54 11° 327° (NNW) 1,416 -0.8 -25.6°
